Weather History for St. Thomas, VI

Change the Weather History Date:

Wednesday, March 5, 2014

  Actual Average Record
Temperature  
Mean Temperature 79 °F 79 °F  
Max Temperature 84 °F 85 °F 92 °F (1996)
Min Temperature 73 °F 73 °F 67 °F (1958)
Degree Days  
Heating Degree Days 0 0  
Month to date heating degree days 0 0  
Since 1 July heating degree days 0 0  
Cooling Degree Days 14 14  
Month to date cooling degree days 68 70  
Year to date cooling degree days 890 884  
Growing Degree Days 28 (Base 50)    
Moisture  
Dew Point 69 °F    
Average Humidity 76    
Maximum Humidity 87    
Minimum Humidity 65    
Precipitation  
Precipitation 0.00 in 0.05 in 0.31 in (1981)
Month to date precipitation 0.20 0.24  
Year to date precipitation 2.78 4.05  
Sea Level Pressure  
Sea Level Pressure 30.05 in    
Wind  
Wind Speed 11 mph (ESE)    
Max Wind Speed 21 mph    
Max Gust Speed 26 mph    
Visibility 10 miles    
Events      
T = Trace of Precipitation, MM = Missing Value Source: NWS Daily Summary

Daily Weather History Graph

Daily Weather History Graph

Search for Another Location

Airport:

Trip Planner

Search our weather history database for the weather conditions in past years. The results will help you decide how hot, cold, wet, or windy it might be!

Date:

Astronomy

Mar. 05, 2014 Rise Set
Actual Time 6:35 AM AST 6:27 PM AST
Civil Twilight 6:13 AM AST 6:48 PM AST
Nautical Twilight 5:48 AM AST 7:14 PM AST
Astronomical Twilight 5:23 AM AST 7:39 PM AST
Moon 9:40 AM AST (3/5) 10:46 PM AST (3/5)
Length of Visible Light 12h 34m
Length of Day
11h 51m
Waxing Crescent, 22% of the Moon is Illuminated
Mar 5
Waxing Crescent
Mar 8
First Quarter
Mar 16
Full
Mar 23
Last Quarter
Mar 30
New

Hourly Weather History & Observations

Time (AST) Temp. Heat Index Dew Point Humidity Pressure Visibility Wind Dir Wind Speed Gust Speed Precip Events Conditions
12:53 AM 73.9 °F - 69.1 °F 85% 30.04 in 10.0 mi East 8.1 mph - N/A   Clear
1:53 AM 75.0 °F - 69.1 °F 82% 30.02 in 10.0 mi East 8.1 mph - N/A   Clear
2:53 AM 75.0 °F - 69.1 °F 82% 30.01 in 10.0 mi East 6.9 mph - N/A   Clear
3:53 AM 73.9 °F - 69.1 °F 85% 30.01 in 10.0 mi ESE 3.5 mph - N/A   Clear
4:53 AM 73.0 °F - 68.0 °F 84% 30.01 in 10.0 mi East 3.5 mph - N/A   Clear
5:53 AM 73.9 °F - 69.1 °F 85% 30.03 in 10.0 mi East 3.5 mph - N/A   Clear
6:53 AM 73.9 °F - 69.1 °F 85% 30.05 in 10.0 mi East 8.1 mph - N/A   Clear
7:53 AM 78.1 °F - 69.1 °F 74% 30.07 in 10.0 mi East 10.4 mph - N/A   Clear
9:53 AM 80.1 °F 82.9 °F 69.1 °F 69% 30.11 in 10.0 mi SE 8.1 mph - N/A   Scattered Clouds
10:12 AM 80.6 °F 83.9 °F 69.8 °F 70% 30.11 in 10.0 mi East 10.4 mph - N/A   Mostly Cloudy
10:42 AM 80.6 °F 83.9 °F 69.8 °F 70% 30.11 in 10.0 mi SE 15.0 mph - N/A   Overcast
10:53 AM 80.1 °F 83.2 °F 70.0 °F 71% 30.11 in 10.0 mi SE 15.0 mph - N/A   Mostly Cloudy
11:53 AM 82.9 °F 87.0 °F 70.0 °F 65% 30.09 in 10.0 mi SE 16.1 mph - N/A   Mostly Cloudy
12:53 PM 82.9 °F 86.5 °F 69.1 °F 63% 30.06 in 10.0 mi SE 18.4 mph - N/A   Clear
1:53 PM 82.9 °F 86.5 °F 69.1 °F 63% 30.04 in 10.0 mi SE 19.6 mph 26.5 mph N/A   Clear
4:53 PM 82.9 °F 86.5 °F 69.1 °F 63% 30.02 in 10.0 mi SE 10.4 mph 18.4 mph N/A   Partly Cloudy
5:51 PM 80.6 °F 83.2 °F 68.0 °F 65% 30.02 in 10.0 mi East 12.7 mph 19.6 mph N/A   Overcast
5:53 PM 80.1 °F 82.7 °F 68.0 °F 67% 30.02 in 10.0 mi East 12.7 mph - N/A   Overcast
6:01 PM 80.6 °F 83.2 °F 68.0 °F 65% 30.02 in 10.0 mi East 13.8 mph - N/A   Mostly Cloudy
6:09 PM 80.6 °F 83.2 °F 68.0 °F 65% 30.03 in 10.0 mi East 12.7 mph - N/A   Mostly Cloudy
6:53 PM 78.1 °F - 66.9 °F 68% 30.04 in 10.0 mi East 12.7 mph - N/A   Clear
7:53 PM 77.0 °F - 68.0 °F 74% 30.05 in 10.0 mi East 11.5 mph - N/A   Clear
8:53 PM 77.0 °F - 68.0 °F 74% 30.07 in 10.0 mi East 11.5 mph - N/A   Clear
9:53 PM 75.9 °F - 69.1 °F 79% 30.08 in 10.0 mi East 8.1 mph - N/A   Clear
10:53 PM 77.0 °F - 69.1 °F 76% 30.07 in 10.0 mi East 10.4 mph - N/A   Clear
11:53 PM 75.9 °F - 68.0 °F 76% 30.07 in 10.0 mi East 10.4 mph - N/A   Partly Cloudy